Temperature
2 2 2 2 1 1 1 1 1 2 2 2 0 -1 -1 -1 -2 -2 -3 -3 -3 -3 -3 -3 -3 -3 -3 -3 -3 -4 -4 -4 -4 -4 -4 -4 -4 -4 -4 -4 -4 -3 -3 -3
0 1 1 1 1 1 0 0 0 0 0 -0 -1 -1 -1 -2 -2 -3 -4 -4 -4 -4 -3 -3 -3 -3 -4 -4 -4 -4 -4 -4 -4 -4 -4 -4 -4 -5 -4 -4 -4 -4 -4 -4
0 0 0 -0 -0 -0 -0 -1 -1 -1 -1 -2 -3 -3 -3 -3 -3 -4 -4 -4 -4 -4 -4 -4 -4 -4 -4 -4 -5 -5 -5 -5 -5 -5 -5 -5 -5 -5 -5 -5 -5 -5 -5 -5
-0 -0 -1 0 -0 -1 -1 -2 -2 -2 -3 -3 -3 -3 -3 -3 -4 -4 -4 -4 -5 -5 -5 -5 -5 -5 -5 -5 -6 -6 -6 -6 -6 -6 -6 -6 -6 -6 -6 -6 -6 -6 -6 -6
-0 -0 0 -0 -1 -2 -2 -3 -3 -3 -4 -4 -4 -4 -4 -4 -4 -4 -4 -5 -5 -5 -5 -6 -6 -6 -6 -6 -6 -7 -7 -7 -7 -7 -6 -7 -7 -7 -7 -7 -7 -7 -7 -7
-1 -0 -0 -0 -3 -3 -3 -3 -4 -5 -5 -5 -5 -5 -5 -4 -5 -5 -5 -5 -6 -6 -6 -7 -7 -7 -7 -7 -7 -7 -7 -7 -7 -7 -7 -7 -7 -7 -8 -8 -8 -8 -8 -8
-1 -1 -2 -4 -5 -4 -2 -3 -4 -4 -5 -5 -6 -6 -5 -6 -6 -6 -6 -6 -7 -7 -7 -7 -7 -7 -7 -7 -8 -8 -8 -8 -8 -8 -8 -8 -8 -8 -8 -9 -9 -9 -9 -9
-2 -2 -2 -6 -5 -5 -5 -5 -5 -5 -5 -6 -6 -6 -7 -7 -7 -7 -7 -7 -8 -8 -8 -8 -8 -8 -8 -8 -9 -9 -9 -9 -9 -9 -9 -9 -9 -9 -9 -9 -10 -10 -10 -10
-3 -3 -5 -6 -6 -6 -6 -6 -6 -6 -6 -6 -7 -8 -8 -8 -8 -8 -8 -8 -8 -9 -9 -9 -9 -9 -9 -9 -9 -9 -9 -10 -10 -10 -10 -10 -10 -10 -10 -10 -10 -11 -11 -10
-5 -6 -6 -6 -6 -6 -6 -7 -7 -7 -7 -7 -8 -8 -9 -9 -9 -9 -9 -9 -9 -9 -9 -10 -10 -10 -10 -10 -10 -10 -10 -10 -11 -11 -11 -11 -11 -11 -11 -11 -11 -11 -11 -11
-6 -7 -7 -7 -7 -7 -7 -7 -7 -8 -8 -8 -8 -9 -9 -9 -10 -10 -10 -10 -10 -10 -10 -10 -11 -11 -11 -11 -11 -11 -11 -11 -11 -12 -12 -12 -12 -12 -12 -12 -12 -12 -12 -12
-6 -8 -8 -8 -7 -8 -8 -8 -8 -9 -9 -9 -9 -10 -10 -10 -10 -10 -10 -11 -11 -11 -11 -11 -11 -12 -12 -12 -12 -12 -12 -12 -12 -12 -12 -12 -12 -12 -12 -13 -13 -13 -13 -13
-8 -8 -8 -8 -8 -8 -9 -9 -9 -10 -10 -10 -10 -10 -11 -11 -11 -11 -11 -11 -11 -11 -12 -12 -12 -12 -12 -13 -13 -13 -13 -13 -13 -13 -13 -13 -13 -13 -13 -13 -13 -13 -13 -13
-9 -9 -9 -9 -10 -10 -10 -10 -10 -11 -11 -11 -11 -11 -11 -11 -12 -12 -12 -12 -12 -12 -12 -13 -13 -13 -13 -13 -13 -13 -13 -13 -14 -14 -14 -14 -14 -14 -14 -14 -14 -13 -13 -14
-10 -10 -10 -11 -11 -11 -11 -11 -11 -12 -12 -12 -12 -12 -12 -12 -12 -12 -12 -13 -13 -13 -13 -13 -13 -13 -14 -13 -14 -14 -14 -14 -14 -14 -14 -14 -15 -15 -15 -15 -14 -14 -14 -14
-11 -11 -11 -11 -11 -11 -12 -12 -12 -12 -12 -13 -13 -13 -13 -13 -12 -13 -13 -13 -13 -14 -14 -14 -14 -14 -14 -14 -14 -14 -14 -15 -15 -15 -15 -15 -15 -15 -15 -15 -15 -15 -15 -15
-11 -12 -12 -12 -12 -12 -12 -12 -12 -13 -13 -13 -13 -13 -13 -13 -13 -13 -14 -14 -14 -14 -14 -14 -14 -14 -15 -15 -15 -15 -15 -15 -15 -15 -15 -15 -16 -16 -16 -16 -16 -16 -16 -15
-11 -11 -12 -12 -12 -12 -12 -13 -13 -13 -13 -13 -13 -13 -13 -14 -14 -14 -14 -14 -15 -15 -15 -15 -15 -15 -15 -15 -15 -15 -15 -16 -16 -16 -16 -16 -16 -16 -16 -16 -16 -16 -16 -16
-12 -12 -12 -12 -12 -13 -13 -13 -13 -13 -13 -14 -14 -14 -14 -14 -15 -15 -15 -15 -15 -15 -15 -15 -16 -16 -16 -16 -16 -16 -16 -16 -16 -16 -16 -17 -17 -17 -17 -17 -17 -17 -16 -16
-12 -12 -12 -13 -13 -13 -13 -13 -13 -13 -14 -14 -14 -15 -15 -15 -15 -15 -15 -16 -16 -16 -16 -16 -16 -16 -16 -16 -16 -17 -17 -17 -17 -17 -17 -17 -17 -17 -17 -17 -17 -17 -17 -17
-12 -12 -13 -13 -13 -13 -13 -14 -14 -14 -14 -15 -15 -15 -16 -16 -16 -16 -16 -16 -16 -17 -17 -17 -17 -17 -17 -17 -17 -17 -17 -17 -17 -17 -17 -17 -17 -17 -17 -17 -17 -17 -18 -17
-13 -13 -13 -13 -14 -14 -14 -14 -14 -15 -15 -15 -16 -16 -16 -16 -17 -17 -17 -17 -17 -17 -17 -17 -17 -17 -17 -18 -18 -18 -18 -18 -18 -18 -18 -18 -18 -18 -18 -18 -18 -18 -18 -18
-13 -14 -14 -14 -14 -14 -14 -15 -15 -15 -16 -16 -16 -16 -17 -17 -17 -17 -17 -17 -18 -18 -18 -18 -18 -18 -18 -18 -18 -18 -18 -18 -18 -18 -18 -18 -18 -18 -18 -18 -18 -18 -18 -18
-14 -14 -14 -15 -15 -15 -15 -15 -16 -16 -16 -16 -17 -17 -17 -17 -18 -18 -18 -18 -18 -18 -18 -18 -18 -19 -19 -18 -18 -19 -19 -19 -19 -19 -19 -19 -19 -19 -19 -19 -19 -19 -19 -18
-14 -15 -15 -15 -15 -15 -16 -16 -16 -16 -17 -17 -17 -17 -18 -18 -18 -18 -18 -19 -19 -19 -19 -19 -19 -19 -19 -19 -19 -19 -19 -19 -19 -19 -19 -19 -19 -19 -19 -19 -19 -19 -19 -19
-15 -15 -15 -16 -16 -16 -16 -17 -17 -17 -17 -17 -18 -18 -18 -18 -19 -19 -19 -19 -19 -19 -19 -19 -19 -19 -19 -19 -19 -19 -19 -19 -19 -19 -19 -19 -19 -19 -19 -19 -19 -19 -19 -19
-15 -16 -16 -16 -16 -17 -17 -17 -17 -18 -18 -18 -18 -19 -19 -19 -19 -19 -19 -19 -19 -20 -20 -20 -20 -20 -20 -20 -20 -20 -20 -20 -20 -20 -20 -19 -19 -19 -19 -19 -19 -19 -19 -19
Wind_Speed
10 10 7 9 10 10 13 12 11 11 12 11 6 5 4 3 2 2 2 2 2 3 2 1 1 1 1 2 1 2 2 2 2 2 2 2 2 2 2 2 2 2 3 3
8 9 9 12 13 13 14 12 14 14 15 9 4 3 2 3 3 3 3 3 3 3 2 2 2 1 1 2 1 1 2 2 2 2 2 2 2 2 2 2 2 2 2 3
6 3 6 10 11 12 9 8 8 13 13 4 3 3 3 3 3 4 4 3 3 3 2 2 2 2 2 1 1 1 2 2 2 2 2 2 2 2 2 2 2 2 2 3
4 3 9 7 1 5 8 8 8 7 5 3 3 3 2 2 2 3 3 2 2 2 1 1 1 1 1 0 1 1 1 1 1 2 2 2 2 2 2 2 2 3 3 3
4 6 9 5 2 2 5 6 4 6 5 4 3 3 3 2 1 2 2 1 1 1 1 1 1 1 1 0 0 1 1 1 2 2 2 2 2 2 2 2 3 3 3 3
5 6 7 4 1 0 2 5 2 2 4 3 1 3 4 1 1 2 2 1 1 1 1 1 1 1 1 0 1 1 2 2 2 2 2 3 3 3 2 3 3 3 4 3
9 8 7 2 1 2 3 5 2 1 3 3 3 4 2 2 2 2 2 2 2 2 1 1 1 1 1 1 1 2 2 2 2 2 2 2 2 2 2 2 2 3 4 4
6 7 8 1 3 4 4 2 2 2 2 2 2 0 1 1 1 2 2 2 2 2 1 1 1 1 0 1 2 2 2 3 3 2 2 2 1 1 2 2 2 3 3 3
6 6 1 4 3 1 1 2 2 2 2 1 1 1 0 0 1 1 1 1 1 1 1 2 1 1 0 1 1 2 2 2 2 2 2 2 1 1 1 2 2 3 3 3
4 5 3 2 1 2 2 2 3 2 2 1 1 2 1 0 0 1 1 1 1 1 1 1 2 1 1 1 1 1 1 2 2 2 2 2 2 2 2 2 2 3 3 3
5 3 3 2 2 2 2 2 2 2 1 0 1 1 1 0 0 0 1 1 1 1 1 1 2 2 2 1 1 1 1 2 2 2 2 2 2 2 3 2 3 3 3 3
5 3 3 3 3 2 1 1 2 2 2 1 0 1 0 0 1 1 1 1 1 1 1 1 2 2 2 1 1 1 2 2 2 2 2 2 2 3 5 5 7 8 7 6
3 2 2 3 3 2 1 1 1 1 1 1 1 0 1 1 1 1 1 1 1 1 1 2 2 2 2 2 1 1 2 2 2 2 2 2 3 3 4 5 6 7 8 9
2 1 1 1 1 2 2 2 2 2 1 1 1 1 1 1 1 1 1 1 1 1 1 2 2 2 2 1 2 2 2 3 3 2 2 2 3 3 3 4 4 4 6 8
2 1 1 1 2 2 2 2 2 2 2 2 2 1 1 1 1 2 2 2 2 1 2 2 2 3 2 2 2 2 2 2 2 2 2 3 3 3 3 4 4 4 4 5
2 2 1 1 1 2 2 1 1 2 2 2 2 2 1 1 1 2 2 1 1 2 2 3 3 3 2 2 2 2 2 5 4 2 2 3 3 3 3 4 4 4 4 4
0 1 1 1 1 2 2 1 1 1 2 2 2 2 2 2 2 2 2 1 1 2 3 3 4 4 3 2 2 2 2 4 6 4 3 3 3 3 3 4 4 4 5 6
1 1 1 2 2 2 2 2 2 2 2 2 2 1 1 1 2 3 3 3 3 3 4 3 3 3 3 2 2 2 2 3 3 3 3 3 3 3 3 4 4 5 5 6
0 1 1 1 1 1 2 2 2 2 2 2 2 2 2 2 2 2 2 2 3 4 4 3 5 4 3 4 4 2 2 3 3 3 3 5 5 3 3 4 4 4 5 5
0 0 0 1 1 1 2 2 2 2 2 2 1 2 2 2 2 2 2 2 3 3 3 4 4 3 3 4 5 2 2 3 4 4 3 3 3 4 4 4 4 4 5 5
1 1 1 1 2 2 1 1 1 2 2 2 1 2 3 3 2 2 2 3 3 3 3 5 3 3 3 4 5 2 2 3 3 3 4 4 4 4 4 4 4 5 5 5
1 1 1 2 2 2 2 1 1 2 2 2 2 2 2 3 3 3 3 3 3 6 4 3 3 5 6 6 2 2 3 3 3 3 3 4 4 4 4 5 5 5 5 5
1 1 2 2 2 2 2 2 2 2 2 3 3 3 3 3 3 3 4 3 3 6 4 3 6 9 9 4 2 2 3 3 3 3 4 4 4 4 5 5 5 5 5 5
1 1 2 1 1 1 3 3 2 2 2 3 3 3 3 3 3 2 2 5 7 7 4 6 10 10 8 3 2 2 3 3 4 4 4 4 4 4 5 5 5 5 6 6
1 2 2 2 2 2 3 2 2 2 2 2 3 3 2 2 2 3 3 3 7 7 4 7 10 9 6 3 3 3 3 4 5 5 4 5 5 5 5 5 6 6 6 6
2 2 2 3 3 2 2 2 2 2 2 3 3 2 2 2 2 2 2 3 5 7 5 4 5 6 4 4 4 4 4 5 6 5 5 5 5 6 6 6 7 7 6 7
2 2 2 2 2 2 2 2 2 3 3 3 3 3 2 2 2 3 3 3 3 4 4 4 3 4 4 4 5 5 5 5 5 5 5 5 5 6 6 7 7 7 7 8
Wind_Direction
261 272 262 249 242 222 224 230 239 255 258 270 253 245 245 236 224 217 224 233 232 229 220 213 209 211 207 208 200 194 204 219 236 239 230 224 227 237 243 256 262 256 254 243
264 256 257 261 250 237 235 240 246 259 267 274 285 285 268 239 227 236 246 243 240 221 209 211 217 222 229 224 213 204 217 231 245 247 243 231 231 241 247 255 260 255 257 248
262 270 295 263 242 226 227 227 222 242 254 281 284 267 251 246 239 236 246 252 241 223 214 219 224 214 223 225 209 216 237 246 254 256 259 254 250 248 254 250 250 244 248 252
266 285 250 247 192 195 219 242 231 244 274 287 273 267 266 274 250 259 251 248 251 224 210 213 220 204 173 148 197 226 247 270 285 280 276 270 251 251 259 259 247 246 246 251
238 252 264 266 219 178 210 262 246 243 272 301 315 317 294 314 293 266 257 210 204 218 196 157 166 144 117 75 303 255 271 295 303 297 287 279 270 265 258 257 257 255 248 248
231 244 251 252 145 19 125 266 286 229 255 275 320 279 267 314 27 35 55 92 108 93 89 113 126 114 108 21 335 307 307 304 299 292 276 274 269 266 255 255 259 265 268 261
233 244 256 257 216 134 187 257 321 263 254 249 236 241 270 49 57 59 62 68 92 96 78 42 61 90 72 349 316 318 325 324 310 298 283 276 269 258 250 262 265 265 275 275
213 231 249 156 134 185 232 326 345 326 308 274 254 234 68 61 61 70 65 58 67 78 46 19 45 92 46 318 330 342 337 327 320 319 310 303 285 261 246 245 255 263 271 283
206 221 230 151 174 221 331 306 315 322 321 277 245 207 236 65 80 96 86 67 55 71 36 13 30 76 55 326 348 347 338 330 327 327 320 312 288 262 251 236 245 266 272 284
246 250 252 221 237 311 315 298 312 307 295 268 224 220 239 237 71 97 73 61 60 54 25 355 11 21 1 340 2 3 338 326 323 324 320 317 307 292 274 256 254 268 276 281
247 270 306 272 285 295 322 342 349 351 354 239 206 247 246 278 330 97 46 39 46 27 348 337 355 353 350 0 11 353 325 314 314 316 314 314 306 286 278 259 256 260 258 265
238 233 239 264 300 321 326 325 327 343 350 354 258 237 294 343 9 41 19 19 14 5 349 340 348 343 345 355 5 336 310 308 306 307 309 310 311 311 301 292 290 287 285 285
249 287 277 286 325 3 18 354 354 358 337 333 353 96 100 39 14 23 7 3 344 330 334 335 337 332 331 337 329 308 291 299 303 307 309 308 307 307 307 310 301 296 294 293
304 320 291 324 346 3 17 17 25 27 21 28 30 47 60 44 27 13 346 334 330 338 334 334 334 323 322 331 316 302 291 292 297 295 297 298 298 296 296 297 304 307 304 301
335 0 253 318 344 353 15 40 34 12 25 26 35 38 36 13 330 324 337 344 352 346 336 339 329 316 319 320 311 303 297 295 294 296 295 293 295 297 298 299 297 300 306 309
349 353 345 339 327 349 12 25 18 349 359 0 0 356 343 331 330 344 356 13 5 323 319 315 305 310 320 311 306 302 291 296 302 298 294 296 295 294 296 296 298 299 302 307
113 312 328 313 324 338 348 339 316 312 333 332 328 332 343 347 344 339 335 336 316 303 303 300 301 312 315 307 296 295 292 297 303 305 297 294 292 292 293 294 295 298 297 297
189 206 221 234 259 289 316 331 333 322 311 311 319 337 340 319 302 308 319 329 328 321 310 304 304 311 311 308 291 287 291 292 296 295 295 293 291 287 289 292 294 296 300 303
142 198 240 261 266 271 291 306 312 315 316 316 314 302 290 287 290 303 319 322 312 305 303 302 315 328 317 304 308 282 285 288 291 291 290 292 301 300 294 292 294 297 299 301
11 36 18 339 335 299 294 306 320 322 317 309 299 298 303 302 304 302 298 284 269 269 282 300 309 306 298 292 301 280 273 278 284 289 289 287 290 294 294 294 293 294 296 297
315 319 326 326 321 317 310 312 313 303 306 301 276 279 288 295 294 283 280 293 296 294 297 307 313 299 292 290 297 286 278 280 282 282 285 287 288 290 290 292 295 295 295 297
282 288 295 302 304 311 318 310 288 287 298 297 286 279 285 291 292 288 269 270 289 308 318 301 298 296 300 301 287 278 278 279 282 284 283 284 287 291 292 292 292 293 293 292
267 264 276 287 285 292 306 301 283 276 279 280 282 280 278 281 285 286 295 296 303 306 318 300 304 308 311 317 300 285 281 280 282 284 284 284 284 285 287 288 287 288 288 288
263 271 280 285 275 281 291 289 277 269 264 270 270 269 272 284 291 280 283 302 311 312 317 310 314 315 320 325 302 287 281 278 278 279 282 284 284 283 282 283 284 285 284 284
254 261 265 264 269 271 272 278 282 277 280 284 283 281 273 264 271 290 299 304 307 314 319 314 314 320 331 318 305 291 281 275 275 276 274 281 281 280 280 279 280 282 283 283
250 258 260 257 261 267 265 267 276 280 284 290 295 292 284 279 279 282 285 288 291 305 312 306 308 311 312 304 298 295 291 291 296 293 285 283 281 279 279 280 280 281 281 280
260 261 266 275 270 259 256 261 269 276 279 281 290 290 286 287 286 287 291 293 295 297 297 296 295 295 298 299 298 294 291 290 286 283 282 279 279 279 278 277 279 280 280 280
Height
1466 1464 1464 1465 1465 1466 1467 1464 1463 1453 1451 1447 1449 1450 1449 1450 1449 1450 1449 1449 1449 1448 1448 1448 1449 1449 1449 1449 1449 1449 1450 1450 1451 1452 1453 1453 1454 1454 1455 1455 1455 1456 1457 1458
1467 1462 1462 1460 1457 1458 1459 1459 1456 1453 1450 1445 1446 1447 1447 1447 1447 1447 1446 1446 1445 1445 1445 1445 1445 1445 1445 1445 1445 1446 1446 1446 1447 1447 1448 1449 1449 1450 1450 1450 1451 1452 1452 1453
1464 1461 1461 1457 1450 1451 1451 1450 1451 1450 1445 1444 1445 1444 1444 1444 1444 1444 1443 1443 1442 1442 1441 1441 1441 1441 1441 1441 1442 1442 1442 1442 1443 1443 1444 1444 1444 1445 1445 1446 1446 1447 1447 1448
1464 1464 1463 1445 1442 1442 1445 1445 1445 1444 1443 1442 1442 1442 1441 1441 1441 1441 1440 1439 1439 1438 1438 1438 1438 1438 1438 1438 1438 1438 1438 1438 1439 1439 1439 1439 1440 1440 1440 1441 1441 1442 1442 1442
1462 1458 1447 1443 1442 1443 1445 1443 1441 1441 1441 1441 1440 1440 1439 1438 1438 1438 1437 1437 1437 1436 1435 1435 1435 1435 1435 1435 1435 1434 1434 1434 1434 1435 1434 1435 1435 1435 1435 1436 1436 1437 1437 1438
1459 1455 1446 1440 1443 1441 1443 1443 1439 1438 1439 1439 1438 1441 1437 1435 1435 1435 1434 1434 1434 1433 1432 1432 1432 1432 1431 1431 1431 1431 1430 1430 1431 1431 1431 1430 1430 1431 1431 1431 1432 1432 1432 1433
1455 1450 1444 1443 1441 1441 1445 1439 1438 1436 1436 1436 1436 1436 1435 1433 1432 1432 1432 1431 1431 1430 1430 1429 1429 1429 1429 1429 1428 1428 1427 1427 1427 1427 1427 1426 1426 1426 1427 1427 1427 1428 1428 1428
1452 1448 1443 1442 1442 1443 1440 1437 1436 1435 1434 1433 1433 1432 1431 1431 1430 1430 1429 1429 1429 1428 1428 1427 1427 1427 1426 1426 1426 1425 1424 1424 1424 1423 1423 1423 1422 1422 1423 1423 1423 1423 1423 1423
1444 1442 1439 1438 1437 1437 1437 1436 1435 1434 1433 1432 1431 1430 1429 1429 1428 1428 1427 1427 1427 1426 1426 1425 1425 1425 1424 1424 1423 1422 1422 1421 1420 1420 1420 1419 1419 1419 1419 1419 1419 1419 1419 1419
1441 1437 1436 1436 1436 1435 1435 1434 1433 1432 1431 1430 1428 1428 1427 1427 1426 1425 1425 1425 1425 1424 1423 1423 1423 1422 1422 1421 1421 1420 1419 1418 1418 1417 1417 1416 1416 1416 1416 1416 1415 1416 1415 1415
1439 1436 1435 1434 1433 1433 1432 1431 1430 1429 1428 1427 1426 1426 1425 1424 1424 1424 1424 1423 1423 1422 1421 1421 1420 1420 1419 1419 1418 1417 1417 1416 1416 1415 1414 1414 1413 1413 1413 1413 1413 1413 1413 1412
1434 1433 1433 1431 1431 1430 1429 1428 1428 1427 1426 1425 1425 1423 1423 1423 1423 1423 1422 1422 1421 1420 1420 1419 1418 1418 1417 1416 1416 1415 1414 1414 1413 1412 1412 1411 1410 1410 1410 1410 1410 1410 1410 1409
1431 1430 1430 1429 1428 1428 1427 1426 1426 1425 1424 1423 1423 1422 1421 1421 1421 1421 1420 1420 1419 1418 1418 1417 1416 1415 1415 1414 1414 1413 1412 1412 1411 1410 1410 1409 1408 1407 1406 1407 1407 1406 1406 1405
1429 1428 1427 1427 1427 1426 1425 1424 1423 1423 1422 1421 1421 1420 1420 1419 1419 1419 1419 1418 1417 1416 1415 1415 1414 1413 1413 1412 1411 1411 1410 1409 1409 1408 1407 1406 1406 1405 1404 1403 1402 1401 1402 1401
1427 1426 1426 1425 1425 1424 1423 1422 1421 1420 1420 1420 1419 1419 1418 1418 1417 1417 1417 1416 1415 1414 1413 1412 1411 1411 1410 1410 1409 1408 1408 1407 1406 1405 1405 1404 1403 1402 1402 1400 1399 1398 1398 1397
1425 1424 1424 1423 1422 1422 1421 1420 1420 1419 1419 1418 1418 1418 1417 1416 1416 1415 1414 1414 1413 1411 1411 1410 1409 1409 1408 1407 1406 1405 1405 1405 1404 1403 1402 1401 1401 1400 1399 1398 1397 1396 1394 1393
1423 1422 1422 1421 1421 1420 1420 1419 1418 1418 1417 1417 1417 1416 1415 1414 1413 1413 1412 1411 1411 1410 1409 1408 1407 1406 1405 1405 1404 1403 1402 1402 1402 1401 1400 1399 1398 1397 1396 1395 1394 1393 1392 1391
1421 1421 1420 1420 1419 1418 1418 1418 1417 1417 1416 1415 1415 1414 1413 1412 1411 1410 1410 1409 1408 1407 1407 1406 1405 1404 1403 1402 1402 1401 1400 1399 1399 1398 1397 1396 1395 1394 1394 1392 1391 1390 1389 1388
1420 1419 1419 1418 1418 1417 1416 1416 1416 1415 1414 1413 1412 1411 1410 1410 1409 1408 1407 1406 1405 1404 1404 1403 1402 1402 1401 1400 1399 1398 1397 1397 1396 1395 1394 1394 1393 1392 1391 1389 1388 1387 1386 1384
1418 1418 1417 1417 1416 1416 1415 1414 1414 1413 1412 1411 1410 1409 1408 1407 1406 1406 1405 1404 1403 1402 1401 1400 1400 1399 1398 1397 1396 1395 1395 1394 1393 1392 1391 1390 1389 1388 1387 1386 1385 1383 1382 1381
1417 1416 1416 1415 1415 1414 1414 1413 1412 1411 1410 1409 1408 1407 1406 1405 1404 1403 1402 1401 1401 1400 1399 1398 1397 1396 1395 1394 1394 1393 1392 1391 1390 1389 1388 1387 1386 1385 1384 1383 1381 1380 1378 1377
1415 1415 1414 1413 1413 1412 1412 1411 1410 1409 1408 1407 1406 1405 1404 1403 1402 1401 1400 1399 1398 1397 1396 1395 1394 1393 1393 1392 1391 1389 1388 1388 1387 1386 1385 1384 1382 1381 1380 1379 1377 1376 1374 1373
1414 1413 1412 1412 1411 1410 1409 1409 1408 1407 1405 1404 1403 1402 1401 1400 1399 1398 1397 1397 1396 1395 1394 1392 1391 1391 1390 1389 1387 1386 1385 1384 1383 1382 1381 1380 1378 1377 1376 1374 1373 1371 1370 1368
1411 1411 1410 1410 1409 1408 1407 1406 1405 1404 1403 1402 1401 1400 1399 1398 1397 1396 1395 1394 1393 1392 1390 1389 1389 1388 1387 1385 1384 1383 1381 1380 1379 1378 1377 1375 1374 1373 1371 1370 1368 1367 1366 1364
1409 1409 1408 1407 1406 1405 1405 1404 1403 1402 1401 1400 1399 1397 1396 1395 1394 1393 1392 1391 1390 1389 1387 1386 1385 1384 1383 1381 1380 1379 1377 1376 1375 1373 1372 1371 1370 1368 1367 1366 1364 1362 1361 1359
1407 1407 1406 1405 1404 1403 1402 1401 1400 1399 1398 1396 1395 1394 1393 1392 1391 1390 1389 1388 1387 1385 1384 1383 1382 1380 1379 1378 1376 1375 1374 1372 1371 1369 1368 1367 1365 1364 1362 1361 1359 1358 1356 1354
1405 1404 1403 1402 1402 1401 1400 1398 1397 1396 1395 1393 1392 1391 1390 1389 1388 1387 1386 1385 1383 1382 1381 1380 1378 1377 1375 1374 1373 1371 1370 1368 1366 1365 1363 1362 1360 1359 1357 1355 1354 1352 1351 1349